Wind_Speed
33 32 31 29 28 28 27 25 25 25 24 24 23 24 24 24 23 22 22 21 20 19 18 17 17 17 17 17 17 17 17 18 19 19 20 20 20 20 21 21 22 22 23 23 23 23 22 22 22 22 22 22 22 22 22 22 22 22 22 22 22 22 23 23 23 24 26 26 26 27 27 27 27 27 28 28 28 28 28 28 28 28 27 27 28
35 35 32 29 29 31 30 28 26 26 25 24 24 24 25 25 25 24 23 23 22 21 20 19 19 18 18 18 18 17 16 16 17 17 18 19 20 21 22 23 23 24 25 25 25 25 25 25 25 25 24 24 24 24 25 25 25 25 25 25 25 25 25 25 25 26 27 28 29 29 30 30 30 30 31 30 31 31 31 31 31 30 30 30 30
35 34 33 32 32 34 34 32 30 28 27 26 25 25 25 26 26 26 26 25 25 24 24 22 21 21 20 20 20 20 19 18 17 17 17 17 19 20 22 23 24 26 26 27 27 27 27 27 27 27 27 27 27 27 27 27 28 28 28 28 28 28 28 29 29 29 29 30 31 31 32 33 33 33 34 33 33 34 34 34 34 33 33 33 33
34 34 35 34 33 33 33 32 32 31 30 29 29 29 29 28 28 28 28 28 28 27 27 25 24 23 23 23 23 23 22 21 20 20 19 19 19 20 21 22 23 25 26 27 28 28 29 29 29 29 29 29 29 29 29 29 30 30 30 31 31 31 31 31 32 32 32 32 33 34 34 35 35 36 37 37 36 36 37 37 37 37 37 36 36
36 36 35 34 33 33 33 33 33 33 32 32 32 32 32 32 31 31 31 31 30 29 29 28 27 25 25 25 26 25 25 24 23 23 23 22 23 23 23 23 24 25 26 26 27 28 29 29 30 30 31 31 31 32 32 32 32 32 32 32 32 32 32 33 34 35 35 35 36 37 37 37 37 38 39 39 39 39 39 39 40 39 39 39 39
38 38 36 35 35 35 34 34 34 35 34 35 35 35 34 34 34 33 33 34 33 31 30 30 30 30 29 28 29 29 28 28 27 26 26 26 27 28 27 27 27 27 27 28 29 29 29 29 29 29 30 31 31 32 33 33 34 34 34 34 34 33 33 33 34 35 36 36 36 37 39 39 40 40 41 41 41 42 42 42 42 42 42 41 41
42 41 40 40 39 39 38 37 37 37 37 37 37 37 36 37 37 38 38 37 36 34 33 32 33 33 33 33 32 33 32 32 32 31 31 30 30 31 31 32 32 31 31 31 31 31 32 31 31 31 32 32 32 32 33 33 34 35 35 35 35 35 35 34 34 35 35 36 37 37 38 39 40 41 42 43 43 43 43 43 43 44 44 43 42
46 46 45 45 44 44 43 41 40 41 41 40 39 39 39 39 39 39 40 40 39 37 35 34 34 35 36 36 36 37 36 35 36 35 35 35 35 34 34 34 34 34 35 35 35 35 35 35 35 36 35 35 36 35 35 35 36 36 36 37 37 37 37 37 37 37 37 37 37 37 38 39 40 41 42 44 44 45 45 45 44 44 44 43 42
48 49 49 49 48 48 46 44 42 43 44 44 43 42 41 41 41 41 41 39 38 38 37 36 36 37 38 38 39 40 39 38 38 38 38 39 39 38 37 36 36 36 37 38 39 40 41 41 40 39 40 40 40 40 39 39 39 39 39 39 39 40 40 40 41 40 40 39 39 39 39 39 40 41 42 44 45 46 46 46 45 44 44 43 42
48 50 51 52 52 52 51 49 47 45 45 46 46 46 46 46 46 46 45 43 41 41 40 39 39 40 39 41 42 42 41 40 40 40 40 42 42 42 41 40 40 40 39 39 39 38 39 39 39 39 39 39 39 39 39 40 40 39 39 39 40 40 41 42 42 43 43 42 42 42 42 41 41 41 42 44 45 46 47 47 47 45 44 43 42
46 48 50 51 52 52 52 51 50 48 46 47 48 48 49 49 49 49 50 49 48 47 46 45 45 44 44 44 45 45 44 43 43 43 43 43 43 44 43 43 44 44 43 43 43 41 40 40 40 39 39 40 41 41 41 42 42 42 42 42 42 42 42 42 42 42 43 42 42 43 44 44 43 43 44 44 45 46 47 48 48 47 46 45 44
45 47 48 49 50 50 50 50 50 50 50 50 50 51 52 52 52 52 53 53 53 52 50 49 49 49 50 49 48 48 48 47 47 47 47 46 46 46 46 46 47 47 48 48 48 47 47 47 47 46 46 46 46 47 46 46 46 47 47 47 47 47 46 45 44 44 44 43 42 43 44 46 46 45 45 46 46 47 48 49 50 50 49 48 47
47 47 48 48 48 48 48 48 49 49 50 51 52 53 54 54 55 55 55 55 55 54 53 52 52 52 53 53 52 52 52 50 49 50 51 51 51 50 50 50 50 50 51 51 51 50 51 51 51 51 51 50 50 50 50 50 50 50 50 49 49 49 50 50 49 49 48 48 47 47 48 49 48 48 48 48 47 48 49 49 51 52 53 53 52
51 51 50 50 50 49 49 48 49 50 50 51 52 53 54 54 54 55 55 55 55 55 54 54 54 53 54 54 54 55 55 53 51 52 53 53 53 54 54 53 53 53 54 54 54 53 53 54 54 55 55 54 54 53 52 52 52 52 52 52 52 52 52 52 53 53 53 53 53 52 52 51 51 51 51 50 49 49 50 51 52 53 55 57 58
55 56 56 56 56 55 55 54 55 56 56 56 56 56 57 57 57 57 57 56 56 56 57 57 56 56 56 56 56 57 56 54 53 55 56 55 56 57 57 56 56 56 57 56 57 56 56 56 56 56 56 56 56 55 54 54 55 55 55 55 54 54 54 54 54 55 56 56 55 55 53 53 53 53 53 53 52 51 51 52 53 54 56 58 59
56 57 58 59 59 59 58 58 59 59 60 59 59 59 60 60 60 60 60 60 60 60 60 60 60 59 59 59 59 58 56 55 56 57 57 58 58 59 59 59 59 59 59 59 59 59 59 58 58 57 57 57 57 57 56 56 56 56 56 55 55 55 55 56 56 57 57 57 57 56 56 56 56 56 57 57 57 57 56 56 56 57 58 59 59
54 55 56 57 58 58 58 58 58 58 58 59 58 58 59 59 59 60 60 60 61 60 61 61 60 60 61 61 60 58 56 56 57 57 57 58 58 59 59 59 59 60 59 59 60 60 60 59 58 58 58 59 59 58 58 58 58 58 57 56 56 56 56 57 58 59 59 58 58 58 58 58 59 59 60 61 61 62 62 61 61 62 61 61 61
53 54 54 55 55 56 57 57 57 57 56 56 56 56 56 56 56 57 57 58 58 58 58 58 59 60 60 59 58 56 56 57 57 57 57 57 57 57 57 57 57 57 58 58 59 59 59 59 59 60 60 60 60 59 58 58 58 58 57 56 56 56 56 58 58 58 58 58 58 59 59 60 61 61 62 63 63 64 65 64 64 65 64 63 63
53 53 53 54 54 55 55 55 55 55 55 55 55 54 54 54 54 54 54 55 55 56 56 56 57 58 57 56 55 55 56 56 56 56 56 56 56 56 56 56 56 56 57 57 58 59 59 60 60 59 59 59 58 58 57 58 58 58 57 57 56 55 57 58 58 58 58 58 58 59 59 60 61 61 62 63 63 65 65 65 66 66 66 65 66
52 52 52 53 53 53 54 54 54 54 54 54 54 54 54 53 53 53 53 53 53 54 55 55 55 55 54 54 54 55 55 55 55 56 55 55 56 56 56 57 56 56 57 57 58 59 59 59 59 58 57 57 57 56 57 57 58 58 57 56 56 55 56 57 58 58 57 56 56 57 58 59 59 60 61 62 63 64 65 66 67 68 68 68 68
50 50 51 51 52 53 53 53 53 53 53 53 53 53 53 53 53 53 53 52 52 53 53 53 53 53 53 53 54 54 54 55 55 55 55 55 55 56 57 57 57 56 56 57 57 58 58 58 57 56 56 56 56 56 56 56 56 57 56 56 55 55 55 55 56 56 55 55 56 57 58 58 59 60 61 62 64 66 67 68 68 68 69 69 69
47 48 49 49 51 51 52 52 53 52 52 53 53 53 53 53 54 53 54 53 53 53 53 53 53 53 53 53 53 53 53 53 53 53 53 54 55 55 56 55 55 55 55 55 56 56 56 57 56 55 55 56 56 56 56 56 56 56 56 57 57 57 57 57 58 58 59 59 59 58 58 59 60 61 63 65 66 68 69 70 71 71 71 71 72
46 47 48 48 49 49 50 50 51 51 52 52 53 52 52 53 53 53 54 54 53 53 53 53 54 53 53 53 52 52 52 52 51 52 52 53 53 53 53 53 53 53 53 54 54 55 55 55 56 55 55 56 56 56 57 57 57 58 58 59 59 60 60 61 62 63 63 62 61 60 60 62 63 64 65 66 68 69 70 71 72 73 73 73 74
48 49 49 48 47 47 47 48 48 49 50 50 50 50 51 51 51 52 53 53 53 53 53 53 53 53 52 52 52 51 51 51 51 51 51 51 51 51 51 51 51 51 52 52 53 54 55 56 57 57 57 58 58 58 59 59 59 59 60 60 61 61 62 63 64 64 64 63 62 62 63 64 65 65 66 66 66 66 66 67 68 69 70 71 72
49 48 47 46 46 46 46 47 47 47 47 47 48 49 49 49 50 51 51 51 52 52 52 52 52 52 51 51 52 51 51 51 51 50 50 49 50 50 50 51 51 52 53 53 54 55 56 57 57 58 58 59 59 59 60 60 61 61 61 61 62 62 62 62 63 63 62 62 63 64 65 65 65 65 65 65 65 64 64 63 63 64 65 66 67
46 45 44 44 44 45 45 45 45 46 46 46 47 47 47 49 50 50 50 51 51 51 51 51 51 51 51 51 51 51 51 51 50 50 50 50 51 51 51 52 52 53 53 54 54 55 55 55 56 55 55 55 55 55 55 56 56 57 57 58 58 59 60 60 60 61 61 62 63 64 65 65 65 64 64 64 64 64 64 64 64 64 65 65 65
44 43 44 44 44 45 45 45 45 46 46 46 46 46 46 48 49 50 50 51 50 50 51 51 51 51 51 52 51 51 51 50 49 49 49 49 49 49 48 47 48 49 50 49 50 49 49 49 48 48 47 47 47 48 49 49 51 52 53 54 55 57 58 59 60 61 62 63 64 64 64 65 64 64 64 65 65 65 66 66 66 67 67 68 67
44 44 44 44 44 44 44 44 44 45 45 45 45 45 46 47 47 48 49 50 50 50 50 51 51 50 50 50 49 48 47 46 45 45 44 44 43 42 40 40 40 41 41 40 40 40 40 40 41 42 43 44 45 46 47 49 50 51 52 53 54 56 57 59 60 62 63 63 64 64 64 64 63 63 64 65 66 66 68 69 70 70 71 71 71
46 45 44 44 44 44 44 45 45 45 45 45 46 47 47 46 46 46 46 45 44 43 42 42 43 42 42 42 41 40 39 38 37 36 35 33 32 31 31 31 32 32 32 33 34 35 36 37 39 41 42 43 44 46 47 48 49 49 50 51 52 54 55 57 58 59 60 61 61 61 61 62 63 63 65 66 66 67 68 69 69 69 68 68 66
46 45 45 45 45 45 45 45 46 46 47 47 47 47 46 44 43 41 37 35 34 33 32 32 33 34 34 34 32 30 28 27 26 26 25 24 24 25 26 27 28 28 29 31 32 33 35 36 38 39 40 42 43 45 46 47 47 48 49 50 50 52 53 54 56 57 58 59 59 60 60 61 61 62 63 63 62 62 63 63 62 61 60 59 57
44 44 44 44 44 45 45 46 46 46 45 44 42 39 36 33 30 27 24 25 27 27 26 26 27 27 26 24 21 20 20 19 20 21 22 23 24 24 24 24 25 25 27 28 30 31 33 35 37 39 41 43 44 45 45 46 47 47 48 48 48 49 50 51 52 54 54 55 55 55 56 56 56 56 56 55 54 54 54 55 54 54 53 52 50
41 41 41 41 41 41 39 38 37 35 33 31 28 26 24 21 19 19 19 20 22 22 21 21 20 19 19 18 18 18 19 20 21 22 21 20 19 19 19 20 21 23 24 26 29 32 34 37 39 41 42 44 45 45 46 46 47 47 47 47 47 47 48 48 48 48 48 48 48 48 48 47 47 47 46 46 46 46 47 47 47 47 46 45 44
36 35 34 32 30 27 26 25 24 23 22 21 19 19 19 19 19 19 18 18 18 18 18 18 18 17 18 19 19 20 21 21 20 18 16 15 14 15 16 17 20 23 26 28 31 34 36 38 40 41 42 44 45 46 46 47 48 48 48 47 46 46 45 44 44 43 43 42 41 40 40 39 39 39 40 40 41 42 43 43 44 44 43 41 41
26 24 22 20 18 17 17 16 16 17 18 19 19 19 20 20 19 18 18 17 17 17 17 18 18 18 18 19 19 19 19 17 15 13 11 11 11 12 15 18 21 25 27 30 32 34 35 37 38 40 41 42 44 45 46 47 48 48 47 46 44 42 40 39 37 36 35 34 33 33 33 34 35 35 36 37 38 39 39 40 40 41 40 40 39
18 16 16 16 14 13 11 11 12 12 15 17 18 18 19 20 20 19 19 19 18 18 17 17 16 16 17 17 17 16 14 12 10 8 7 8 10 14 17 19 22 25 27 28 30 31 33 35 36 38 40 41 43 44 45 45 45 44 42 40 37 35 32 30 29 28 28 28 28 29 30 30 30 31 31 31 32 32 32 32 33 35 36 36 37
15 16 16 14 11 9 11 14 15 16 16 17 17 18 18 19 20 20 19 18 17 16 16 15 16 16 16 15 14 12 11 8 5 4 6 9 12 14 17 19 21 23 25 26 28 30 32 33 35 37 39 40 42 42 42 41 40 38 35 31 28 25 24 23 24 24 25 25 25 25 25 25 26 26 27 27 28 29 29 30 31 32 33 34 35
13 15 14 11 7 9 11 12 13 15 16 16 17 17 17 17 17 17 16 15 14 15 16 16 16 15 14 13 12 10 6 2 2 5 7 9 11 13 15 17 19 21 24 26 28 30 31 32 34 36 38 39 40 39 38 36 34 30 25 22 20 20 21 22 22 22 20 20 21 22 23 24 26 27 28 28 29 30 30 31 31 31 32 33 34
13 13 12 9 9 10 10 9 10 11 12 13 13 12 12 12 13 13 13 14 15 16 15 15 15 14 13 12 9 5 2 1 3 5 6 8 10 12 15 18 20 22 24 26 28 30 31 33 34 36 37 37 37 35 33 30 26 21 18 17 17 19 20 20 19 17 17 18 21 23 24 26 27 29 30 30 31 31 31 31 31 32 32 33 33
13 13 12 12 11 10 10 10 9 9 10 10 9 9 10 12 13 14 15 16 16 16 15 15 14 13 11 9 6 3 1 1 3 4 5 8 11 14 17 20 22 24 26 27 29 31 32 33 35 36 37 36 34 31 27 23 20 17 15 16 18 18 17 15 14 15 17 19 20 21 22 24 27 28 29 30 29 29 29 29 29 30 30 31 32
13 14 13 13 12 13 13 13 13 12 12 12 12 12 14 15 16 17 17 17 17 16 15 14 13 11 8 6 4 3 3 3 3 3 6 9 12 15 18 21 23 25 27 28 30 32 33 34 36 37 37 36 32 26 21 18 17 16 16 17 17 15 12 11 12 15 16 16 17 19 21 23 23 23 23 23 22 22 22 22 22 23 23 23 24
13 13 13 12 12 13 14 13 13 13 14 15 16 17 18 18 18 18 18 17 16 15 14 13 11 9 7 7 6 6 6 4 2 4 7 9 12 15 18 21 24 26 28 29 31 32 34 35 36 38 38 36 29 22 18 15 14 14 14 14 12 10 10 11 13 13 13 14 17 19 19 18 16 16 16 17 17 18 18 19 19 18 17 17 17
13 13 12 12 11 11 11 11 12 13 14 16 17 18 18 18 18 17 17 16 15 14 13 12 11 10 9 8 8 7 5 2 3 5 8 10 12 15 18 21 24 27 29 30 31 32 34 36 37 38 38 34 26 19 15 13 12 12 11 11 9 9 10 11 11 10 11 15 18 18 14 12 12 13 13 14 14 14 14 14 14 14 13 12 12
12 11 10 9 9 9 9 10 11 12 13 15 16 16 16 17 16 16 15 15 14 14 13 12 11 10 10 9 8 6 3 3 4 6 8 10 12 15 18 21 24 27 30 31 32 33 35 37 38 39 38 33 23 15 11 12 12 11 8 8 8 8 9 10 9 10 14 17 16 12 10 10 11 11 11 10 10 9 8 8 9 9 8 8 7
11 9 8 7 7 8 8 9 10 11 12 13 14 15 15 15 15 15 15 15 14 14 13 12 11 11 10 10 8 4 3 4 6 7 8 10 12 15 17 20 23 27 30 32 33 34 35 37 38 40 39 33 22 13 10 13 13 9 6 6 6 7 7 7 8 12 16 15 11 8 8 9 8 7 7 8 8 8 6 5 4 4 3 3 2
10 8 7 6 6 7 9 10 11 11 12 13 14 15 15 15 15 15 14 14 13 12 12 11 11 11 11 10 7 4 4 5 6 7 9 10 12 14 17 19 22 26 29 32 34 35 35 36 38 40 40 35 23 14 12 13 11 6 4 5 5 4 4 5 9 14 14 10 6 5 5 5 5 5 6 7 8 9 9 6 2 1 2 2 3
9 8 7 7 7 8 9 10 11 12 13 13 14 14 15 15 14 14 14 13 12 11 11 11 11 11 11 9 6 5 5 6 7 8 9 11 12 14 16 19 21 25 28 32 35 36 36 37 38 40 41 37 26 15 12 12 10 6 5 5 3 2 3 6 11 12 8 3 1 2 4 7 7 7 9 10 9 9 9 8 5 4 3 2 2
9 8 8 7 7 8 10 11 12 12 13 13 13 14 14 14 14 13 13 12 11 11 11 11 11 11 11 9 7 6 6 6 7 8 9 11 12 14 16 18 21 24 27 31 34 36 37 37 38 39 40 39 29 18 12 11 10 7 5 4 3 1 4 8 10 8 1 4 5 4 5 6 6 7 9 11 12 11 10 9 8 6 5 4 2
8 8 8 8 8 9 10 11 11 12 12 12 13 13 13 13 13 13 13 12 12 12 11 11 11 11 11 10 9 7 7 7 8 9 10 11 13 14 16 18 20 23 26 29 33 36 37 38 38 38 40 40 34 23 14 11 11 8 4 5 4 3 6 9 7 1 6 9 7 4 4 5 5 4 5 7 9 11 11 10 9 8 7 7 6
9 8 8 8 8 9 10 11 11 11 12 12 12 13 14 14 14 14 13 13 13 13 12 12 12 12 12 11 10 9 9 9 9 10 11 12 13 15 16 17 19 22 24 27 31 34 36 38 38 38 39 40 38 29 17 11 11 10 4 7 7 5 6 6 1 7 11 10 7 4 4 4 5 7 8 6 5 7 9 10 10 9 8 8 7
10 9 9 9 9 10 11 12 12 12 12 12 13 14 14 14 14 14 14 14 14 13 13 13 13 13 12 12 11 11 10 11 11 12 12 13 14 15 16 17 18 20 23 26 29 32 35 37 38 39 39 39 39 34 21 11 9 8 3 7 7 5 5 1 5 12 14 11 8 6 5 4 5 8 10 8 7 6 6 7 9 10 10 9 9
9 9 9 9 9 9 10 12 13 13 14 14 14 15 15 15 15 15 15 15 15 14 14 14 13 13 12 12 12 12 12 12 13 13 13 14 15 16 16 17 18 19 22 24 27 30 33 35 37 38 38 38 39 36 27 14 7 5 2 5 6 4 2 3 10 15 15 11 9 8 6 3 4 6 7 9 10 10 9 7 6 6 7 7 7
Wind_Direction
254 253 255 260 264 265 264 263 263 265 266 265 262 259 256 255 255 256 258 259 261 264 268 270 271 270 270 269 267 267 267 266 265 264 263 262 262 261 260 258 258 257 255 254 253 252 252 253 254 253 253 253 254 256 257 257 255 255 255 255 255 256 257 258 260 264 267 268 269 269 269 268 268 268 267 266 266 265 264 264 265 266 265 265 265
254 254 257 264 269 267 264 262 262 263 265 265 264 261 258 257 257 258 259 260 261 263 266 268 270 269 268 267 266 264 263 262 262 262 262 261 260 260 260 260 259 259 257 256 255 254 253 253 254 255 256 256 255 256 258 259 260 260 259 259 258 258 258 258 258 259 262 265 267 268 270 270 269 268 268 268 268 267 266 265 265 265 265 265 265
261 260 261 266 272 269 262 258 260 263 264 265 264 264 263 259 257 258 258 259 261 263 263 264 265 265 265 264 264 263 260 258 257 258 259 260 260 259 258 258 258 259 259 259 258 258 257 256 256 257 258 258 258 258 258 259 260 261 262 262 263 262 262 262 262 261 261 263 264 265 266 268 269 269 268 268 268 268 268 268 267 266 265 265 264
263 263 263 264 267 267 262 259 262 265 268 268 266 266 267 265 263 262 260 260 260 261 261 261 259 259 260 262 262 262 261 259 258 258 259 261 263 262 260 258 257 257 258 258 259 260 260 260 259 259 260 261 261 261 261 261 261 262 263 264 265 266 266 266 266 265 265 265 265 265 265 265 267 268 269 269 268 268 268 268 268 268 268 267 266
261 262 262 261 262 264 263 263 264 265 267 268 267 266 266 267 267 267 265 263 262 260 260 259 258 256 258 260 261 260 260 259 259 261 264 266 264 263 262 261 260 259 259 259 260 260 260 260 260 260 260 261 261 262 262 263 263 263 263 264 266 267 268 269 269 269 268 268 268 268 268 267 266 266 267 268 269 269 269 269 268 268 268 268 268
260 260 260 261 262 263 262 262 264 265 266 266 266 264 263 265 266 266 267 266 264 262 260 258 258 258 259 260 261 260 259 258 258 261 264 266 265 265 264 263 262 262 262 261 261 261 261 261 261 261 262 261 262 262 263 263 264 264 265 265 266 266 266 267 268 269 270 270 269 269 269 269 268 267 266 266 266 267 268 268 269 269 269 268 267
261 261 260 260 261 260 261 262 264 266 266 266 266 263 262 265 265 265 265 264 264 264 263 260 260 260 260 260 259 259 258 257 257 258 260 261 262 264 265 264 264 263 263 263 263 263 263 263 263 264 265 265 265 265 266 266 267 267 268 269 269 268 267 266 266 267 268 269 269 269 269 269 269 269 268 267 266 265 264 265 265 266 267 267 267
262 262 262 262 261 261 262 263 263 264 264 263 263 262 262 263 263 263 263 263 264 264 262 261 262 262 262 263 262 260 260 259 258 258 259 260 261 261 261 262 264 265 265 265 266 267 268 268 269 269 268 268 267 268 269 269 270 270 271 272 272 272 271 270 269 268 268 268 268 268 268 269 269 269 268 268 268 266 265 264 262 262 262 262 262
261 262 262 262 263 263 263 262 261 261 261 261 261 262 261 260 260 261 262 264 265 264 262 261 263 263 264 266 265 264 264 263 262 261 260 260 260 260 259 259 261 265 267 267 267 269 270 270 271 272 271 270 269 270 271 272 272 272 273 274 274 274 273 273 272 272 271 270 268 267 267 267 268 269 269 269 269 268 266 265 263 260 259 258 257
259 259 259 260 261 262 262 262 261 260 260 261 261 262 261 259 260 261 262 263 265 266 265 264 264 264 264 265 265 265 265 264 263 263 262 262 261 260 260 259 261 265 268 268 267 267 266 265 267 269 271 272 272 273 274 275 274 274 275 276 277 276 275 273 272 272 271 271 270 270 268 267 267 267 267 267 268 268 267 265 263 260 257 256 255
257 256 256 258 259 260 261 261 261 260 259 259 259 260 260 260 260 261 261 262 264 266 267 267 266 266 265 264 265 265 264 263 263 265 266 266 265 263 262 262 263 265 268 270 269 267 266 267 269 270 271 273 274 275 276 277 277 277 277 278 279 278 276 274 273 271 271 270 271 271 271 270 268 267 267 266 266 266 266 264 261 259 256 255 255
255 254 253 254 256 257 259 260 261 261 261 261 261 261 262 262 262 262 262 263 264 265 266 266 267 267 266 266 266 266 265 264 264 267 269 269 268 267 265 265 265 266 269 271 272 272 272 273 274 273 273 273 274 275 276 276 276 277 278 279 279 278 277 274 272 271 270 269 269 271 272 271 270 269 267 266 265 265 265 264 261 259 257 256 255
253 252 250 250 251 253 255 256 257 259 260 261 262 263 264 265 265 265 265 266 267 267 267 267 268 268 268 267 266 266 265 265 266 267 268 268 268 268 267 266 267 269 270 272 274 275 276 276 276 276 276 276 276 276 276 276 275 275 276 276 276 276 276 275 274 272 270 269 268 270 272 271 270 269 267 266 265 264 264 264 262 260 259 258 258
253 252 251 252 253 254 255 255 256 258 260 261 262 262 263 265 266 267 267 268 268 269 269 269 269 269 269 269 268 267 265 265 266 267 267 268 268 268 268 267 268 269 271 273 275 276 277 278 278 279 279 279 278 278 278 277 276 275 275 275 275 274 274 274 273 273 272 271 270 271 272 271 269 268 266 265 264 263 263 263 263 262 260 260 260
254 255 255 256 258 259 260 259 259 260 262 263 263 263 263 264 265 266 267 267 268 269 269 269 269 269 269 269 268 268 267 267 267 268 268 268 269 269 269 269 270 271 272 274 276 277 277 277 278 278 278 278 278 278 277 276 275 275 275 274 274 274 273 272 271 271 271 271 271 272 272 271 270 268 266 265 264 263 263 263 263 263 262 261 261
256 257 258 259 260 262 262 262 262 263 263 264 263 263 263 264 264 265 266 266 267 268 268 269 269 269 270 269 268 268 269 269 268 268 268 268 269 269 269 270 271 272 274 275 276 276 276 276 277 276 276 276 276 276 276 275 274 274 274 273 273 272 271 270 269 269 269 269 270 270 270 270 269 269 268 267 266 265 264 265 265 265 263 262 262
258 258 259 259 260 261 261 262 262 262 263 263 263 263 263 263 264 264 265 265 265 266 266 267 268 268 268 269 269 270 269 269 268 268 268 268 268 269 269 270 271 272 273 273 273 274 274 275 275 275 275 275 275 276 276 275 275 275 274 274 273 272 270 269 268 267 267 268 268 269 269 269 268 268 268 268 268 267 266 266 266 265 264 262 261
260 260 260 260 261 261 261 261 261 261 261 261 262 262 262 263 263 264 264 265 265 265 265 265 266 266 266 268 269 269 268 268 268 269 269 269 269 269 270 270 271 271 271 271 272 272 273 273 274 274 275 276 276 276 276 276 275 275 275 274 273 272 270 268 267 267 267 267 267 267 268 268 268 268 267 267 267 267 267 266 266 265 264 263 262
263 263 263 263 262 262 262 262 262 262 262 261 261 262 262 262 262 263 263 263 264 264 264 264 264 265 266 268 267 267 267 268 268 268 269 269 270 270 271 270 270 270 271 271 272 272 272 272 273 274 275 276 276 275 275 274 274 274 274 273 272 271 269 268 268 267 267 267 267 266 267 267 267 268 268 268 267 267 267 266 265 264 264 263 263
263 263 264 264 264 264 263 263 263 263 262 262 262 262 262 263 263 262 262 262 263 263 263 263 264 265 266 266 266 266 267 268 268 269 269 270 270 270 270 270 270 270 271 271 271 272 272 273 273 273 274 274 274 274 274 274 274 274 274 273 272 271 269 268 266 265 265 266 267 268 267 267 267 267 267 268 268 268 267 267 266 265 264 263 262
262 263 263 263 263 263 263 263 263 263 262 262 262 262 263 263 263 263 263 263 263 264 264 264 265 265 265 265 265 266 266 267 268 268 269 269 269 269 269 270 271 271 271 271 272 272 273 273 273 273 273 273 272 272 273 273 273 273 274 274 273 272 270 268 266 263 264 267 269 269 269 268 268 268 267 267 267 267 267 267 267 266 265 264 263
263 262 261 261 261 261 261 261 262 262 262 262 262 262 262 262 263 263 264 263 264 265 265 266 266 266 266 266 266 266 266 267 267 268 268 268 268 268 269 270 271 271 271 271 272 272 273 273 273 273 273 273 273 273 273 272 272 272 272 272 272 272 271 270 268 267 268 270 271 271 269 269 269 269 268 268 268 267 267 266 266 266 265 265 265
263 263 262 261 261 260 260 261 261 261 261 261 261 261 262 262 263 263 263 264 264 265 265 266 267 267 267 267 267 268 268 268 267 267 267 267 268 269 269 270 270 271 271 271 272 273 273 274 274 274 274 274 274 274 274 274 273 273 273 272 272 271 271 271 271 271 271 272 271 270 270 270 270 270 270 270 270 270 269 268 267 266 266 265 265
264 264 264 264 264 263 262 262 262 262 262 262 261 261 261 261 261 262 263 264 264 264 265 266 266 267 268 268 269 269 269 269 269 268 268 268 269 270 270 270 271 272 272 273 274 275 275 276 277 277 277 277 277 276 276 276 275 274 273 273 272 271 271 270 270 270 271 271 270 270 271 271 272 272 273 274 273 273 272 272 271 270 268 267 266
265 265 265 266 265 264 263 263 263 263 263 262 261 260 260 259 260 261 262 262 263 263 264 264 265 266 267 267 268 268 269 269 270 270 270 270 271 271 272 272 273 273 274 275 275 276 277 277 277 278 278 278 278 278 277 276 276 275 273 272 272 271 270 270 269 269 269 269 269 270 271 271 273 274 275 275 275 275 274 274 274 274 272 271 269
265 266 266 266 265 265 264 264 264 264 263 262 261 261 260 260 260 260 261 261 262 262 263 264 264 265 265 265 266 267 267 268 269 270 270 270 270 271 272 273 273 273 274 274 274 275 275 276 276 277 278 278 278 278 278 277 276 276 275 274 273 272 272 271 270 270 270 270 270 271 272 273 274 275 275 274 274 274 275 275 275 275 275 274 272
267 266 266 266 266 266 266 265 264 264 263 262 262 261 260 259 259 260 260 260 261 261 262 262 263 263 263 264 264 265 266 267 268 268 268 268 268 268 269 270 271 271 272 273 274 275 276 277 278 278 279 279 279 279 278 278 278 277 277 276 275 274 274 273 273 272 272 272 273 273 273 273 273 273 272 272 273 274 275 275 274 274 274 273 272
269 268 267 267 267 266 266 265 265 265 264 264 264 263 262 261 261 260 260 260 260 261 261 261 262 262 263 264 264 265 266 266 266 265 265 266 266 266 266 268 270 271 273 274 276 277 278 279 279 279 279 279 279 279 279 278 277 277 277 276 276 276 275 275 274 274 274 274 273 273 273 272 271 271 271 272 273 274 274 274 274 273 273 272 272
271 271 270 270 269 269 268 268 267 267 266 266 265 264 264 263 262 261 261 261 261 261 260 260 261 261 261 262 262 262 262 261 262 262 262 262 263 264 265 268 270 272 273 275 277 279 280 280 281 281 281 281 280 280 280 280 280 279 279 279 279 278 277 276 276 275 274 274 273 273 272 272 272 272 272 273 273 274 274 273 273 272 272 272 272
270 271 271 271 270 270 270 270 269 269 268 266 265 264 264 262 261 261 259 256 256 257 256 256 257 257 256 256 255 255 256 256 256 258 258 260 261 263 265 267 270 273 276 278 280 281 283 284 285 285 285 285 286 286 286 286 286 285 284 283 282 281 279 278 277 277 276 275 274 274 273 273 273 272 272 272 272 271 271 271 270 270 270 269 268
269 270 270 271 271 271 271 270 269 267 266 264 262 260 258 256 254 253 248 243 246 251 253 253 253 253 251 248 244 244 246 248 251 255 259 261 263 265 268 272 275 278 281 284 286 288 290 292 294 294 294 294 293 293 292 291 289 287 286 284 283 281 279 278 277 276 275 274 273 272 272 271 270 270 270 269 269 268 267 267 267 266 266 266 265
270 270 271 271 270 269 268 267 265 262 260 257 252 247 242 237 234 237 239 240 244 246 246 245 244 242 238 233 232 236 243 249 253 257 260 263 265 269 273 277 282 287 292 296 299 300 301 300 300 299 299 298 297 295 293 292 290 289 287 286 284 282 280 278 277 276 275 274 273 272 271 270 269 268 268 267 266 265 265 265 265 265 265 264 262
270 269 268 266 264 264 264 260 255 249 244 238 231 227 224 219 219 228 235 238 238 237 234 232 232 231 231 232 235 240 247 251 255 257 260 262 268 276 285 294 302 306 308 308 307 305 303 301 300 299 298 297 295 294 293 291 290 289 288 286 284 283 281 280 279 278 276 275 274 273 272 270 269 268 267 266 266 266 266 265 265 265 264 262 261
261 258 254 251 256 264 262 249 238 231 225 221 219 219 217 215 217 224 230 231 232 232 232 233 234 235 235 236 239 243 246 248 249 251 257 268 284 301 312 316 315 312 308 305 303 301 301 300 299 298 298 297 295 294 293 291 290 288 287 286 284 283 282 280 278 277 276 276 275 273 272 271 270 270 270 270 270 269 269 268 267 266 265 264 264
239 234 234 242 258 264 242 208 191 192 199 205 211 214 215 217 221 226 229 232 233 235 235 234 234 234 234 236 238 239 237 236 238 247 272 304 322 325 322 316 310 306 303 302 303 303 303 303 303 302 300 299 297 295 294 292 290 288 286 285 284 282 280 277 277 277 277 277 276 275 274 274 274 274 274 273 273 273 272 271 270 268 268 267 266
222 221 228 239 249 235 203 184 180 185 192 200 209 215 220 224 228 231 232 231 229 227 227 229 230 231 231 230 227 222 219 222 239 295 332 336 329 321 315 311 308 307 307 308 309 310 309 308 307 306 305 303 300 298 296 294 291 290 288 285 282 279 277 277 279 280 280 278 277 277 276 276 275 274 274 275 275 275 274 273 271 270 268 266 265
204 210 223 226 207 186 184 181 182 189 198 206 213 220 225 227 227 225 221 219 220 223 225 226 224 220 215 210 206 204 205 220 339 346 337 326 318 316 316 317 317 317 317 316 316 315 314 313 313 312 311 308 305 302 300 297 294 291 287 281 276 275 278 280 280 279 277 275 275 276 277 277 277 277 278 278 278 277 276 275 273 272 270 268 266
193 205 217 207 180 173 177 178 180 189 198 203 204 206 208 207 207 209 211 217 221 221 214 206 199 194 192 192 189 184 167 11 344 324 316 318 322 327 330 332 332 330 327 324 323 322 321 320 320 319 318 315 311 307 303 299 293 288 281 275 274 277 279 279 276 275 275 277 279 281 281 280 281 281 281 281 281 280 279 277 276 273 271 268 266
193 199 203 198 194 199 205 207 209 210 211 209 204 200 200 204 208 212 213 211 205 196 187 184 183 182 180 177 170 159 166 279 288 300 316 327 332 336 341 342 340 337 334 331 331 330 328 327 327 327 326 323 317 311 305 297 288 280 274 274 277 278 277 274 273 275 279 283 285 286 286 285 284 284 284 284 284 282 281 278 276 274 271 268 266
203 200 198 199 207 218 222 223 224 224 224 224 220 214 212 211 208 202 195 187 182 179 179 180 178 175 173 173 179 190 207 226 255 303 325 330 334 341 346 347 345 342 339 336 335 334 333 333 333 333 333 329 322 314 307 296 284 277 276 277 277 273 269 268 273 279 285 289 294 296 295 293 291 290 291 291 290 288 285 282 279 277 274 271 268
215 209 205 205 210 216 221 225 225 223 220 217 212 207 203 197 189 182 178 176 176 177 177 175 175 178 185 192 196 199 204 219 277 321 328 331 337 345 349 349 348 345 342 340 339 338 337 337 338 339 338 334 325 317 310 300 288 283 283 280 270 260 258 266 276 285 293 300 305 307 305 302 300 301 300 299 297 293 289 286 283 281 280 277 272
217 211 209 209 210 212 217 221 220 215 207 200 194 189 184 179 175 174 175 176 177 177 178 180 184 188 192 195 198 202 208 238 300 315 322 331 341 348 351 351 350 348 346 344 342 341 341 341 342 343 342 337 327 317 313 310 301 293 285 272 257 252 262 273 283 294 302 307 312 314 311 306 305 307 307 306 302 297 293 291 288 284 279 275 272
213 205 200 199 200 202 206 208 205 199 190 183 178 176 175 174 174 175 177 180 182 183 185 188 189 191 194 200 203 205 218 269 294 307 322 335 343 348 350 351 351 350 349 348 346 345 345 345 345 345 345 341 331 318 320 327 321 304 279 255 251 262 273 278 284 295 305 312 316 314 305 304 308 314 319 323 321 315 307 300 295 289 279 271 270
206 198 191 188 190 192 193 193 190 184 179 176 175 175 177 178 179 181 184 187 189 190 191 193 195 198 203 205 205 209 241 274 290 308 324 334 340 345 349 351 351 351 351 351 349 348 348 348 347 348 348 347 337 319 321 334 330 309 268 248 262 278 280 278 288 302 311 316 315 301 296 308 318 325 339 353 360 3 360 342 315 301 286 262 248
199 194 188 189 193 191 187 185 183 180 179 180 180 182 183 185 186 189 193 195 196 197 199 200 204 210 213 212 210 219 248 273 294 311 323 332 338 343 346 348 350 352 352 352 352 351 350 350 350 350 351 351 344 325 321 335 336 316 273 265 275 282 282 290 306 313 315 317 313 302 314 346 359 354 3 18 25 25 25 29 42 95 107 125 141
196 193 190 193 195 193 188 187 187 186 187 188 188 188 189 191 194 198 199 201 203 207 209 211 216 222 225 223 219 227 250 275 296 309 320 328 334 339 344 347 349 351 352 353 354 353 352 351 352 352 353 353 349 335 325 334 338 320 288 276 274 287 310 312 314 316 318 327 57 78 77 74 61 47 42 42 39 35 35 42 60 92 108 125 170
184 183 184 188 193 197 195 194 193 193 194 194 194 194 195 198 201 203 205 209 213 217 219 221 226 231 235 237 237 242 257 278 294 305 315 323 329 336 342 346 347 350 352 353 354 354 354 353 353 353 354 355 353 345 330 330 333 322 288 253 239 295 327 321 316 315 317 141 144 130 96 64 45 46 49 44 40 41 45 48 56 71 84 91 122
165 169 175 182 193 201 203 202 201 201 201 201 201 203 205 207 208 209 212 217 221 224 227 231 234 238 244 249 251 254 263 278 290 302 311 319 326 332 339 344 347 350 352 353 354 355 355 355 354 354 355 356 356 352 339 328 330 326 285 223 220 279 318 323 321 277 149 151 153 130 63 20 8 28 44 38 33 35 42 50 59 66 73 80 87
147 155 167 179 191 201 207 209 209 209 209 210 212 214 215 217 218 219 221 225 229 231 234 238 241 245 250 254 259 264 270 279 289 299 308 315 322 327 334 342 347 349 351 352 354 355 356 356 355 355 355 357 357 356 348 333 329 328 284 215 218 264 306 323 338 153 155 156 148 118 75 49 49 55 56 59 52 38 39 51 62 65 70 78 82
154 158 165 175 186 196 205 210 212 212 214 217 220 223 225 226 227 228 230 232 235 238 241 244 248 251 256 260 266 271 277 282 289 296 303 311 318 323 329 337 344 348 350 351 353 354 356 356 356 355 355 356 357 357 353 339 329 330 284 213 223 269 309 313 158 159 160 157 145 130 114 86 62 54 54 64 74 65 53 58 65 68 71 75 79
178 178 178 180 186 193 202 210 214 216 218 220 223 225 228 231 233 235 237 240 243 245 248 251 255 258 262 267 272 276 281 284 288 292 299 307 314 319 324 332 340 346 348 350 352 354 355 356 356 356 355 355 356 357 356 346 323 315 267 221 241 284 304 173 167 165 165 164 156 145 134 88 45 49 55 63 67 68 67 66 68 69 68 65 69
Height
5713 5714 5715 5715 5716 5716 5716 5717 5717 5718 5719 5720 5720 5719 5719 5720 5721 5721 5722 5722 5723 5723 5724 5724 5725 5725 5725 5725 5725 5725 5726 5726 5726 5727 5727 5727 5728 5728 5728 5728 5728 5728 5728 5727 5728 5728 5728 5729 5729 5730 5730 5730 5731 5731 5731 5731 5732 5733 5733 5734 5735 5735 5736 5736 5737 5736 5736 5736 5737 5737 5737 5738 5739 5739 5740 5741 5741 5742 5743 5744 5744 5745 5746 5747 5747
5710 5711 5712 5712 5713 5713 5714 5714 5714 5715 5716 5717 5717 5717 5717 5717 5718 5719 5719 5720 5720 5721 5721 5721 5722 5722 5722 5722 5722 5722 5723 5723 5723 5723 5724 5724 5725 5725 5725 5725 5725 5725 5725 5725 5725 5725 5726 5726 5726 5727 5727 5728 5728 5729 5729 5729 5729 5730 5730 5730 5731 5732 5732 5733 5733 5734 5733 5733 5733 5733 5733 5734 5735 5735 5735 5736 5737 5738 5739 5739 5740 5741 5742 5743 5743
5708 5708 5709 5709 5710 5710 5710 5711 5711 5712 5713 5713 5714 5714 5714 5714 5715 5716 5716 5717 5717 5718 5718 5719 5719 5719 5719 5720 5720 5720 5720 5720 5720 5720 5720 5721 5721 5722 5722 5722 5722 5722 5722 5722 5722 5723 5723 5723 5724 5724 5724 5725 5725 5726 5726 5727 5727 5727 5727 5728 5728 5728 5729 5729 5729 5730 5730 5730 5730 5730 5730 5730 5730 5731 5731 5732 5733 5733 5733 5734 5735 5736 5737 5738 5739
5704 5705 5705 5706 5706 5706 5706 5707 5708 5709 5709 5710 5710 5710 5710 5711 5712 5712 5713 5713 5714 5714 5715 5715 5715 5716 5716 5716 5717 5717 5717 5718 5718 5718 5718 5718 5718 5718 5718 5719 5719 5719 5719 5720 5720 5720 5720 5721 5721 5721 5721 5721 5722 5722 5723 5723 5723 5724 5724 5725 5725 5725 5725 5725 5725 5726 5726 5726 5726 5726 5726 5727 5727 5726 5726 5727 5728 5728 5729 5729 5730 5731 5732 5732 5733
5700 5700 5701 5702 5702 5702 5703 5704 5704 5705 5705 5706 5706 5707 5707 5707 5708 5708 5709 5709 5710 5711 5711 5711 5712 5712 5713 5713 5714 5714 5715 5715 5715 5715 5715 5715 5715 5715 5715 5715 5716 5716 5716 5717 5717 5717 5717 5717 5718 5718 5718 5719 5719 5719 5719 5719 5719 5720 5720 5721 5722 5722 5722 5722 5722 5722 5722 5722 5722 5721 5721 5722 5722 5723 5722 5722 5723 5723 5724 5724 5725 5725 5726 5727 5728
5696 5696 5697 5697 5698 5698 5699 5700 5700 5700 5701 5702 5702 5703 5703 5703 5703 5704 5704 5705 5705 5706 5707 5708 5708 5708 5709 5710 5710 5710 5711 5712 5712 5712 5713 5713 5712 5712 5712 5712 5712 5712 5713 5713 5713 5713 5713 5714 5714 5714 5715 5715 5715 5716 5716 5716 5716 5716 5717 5717 5718 5718 5719 5719 5719 5718 5718 5719 5719 5718 5718 5717 5717 5718 5718 5718 5718 5719 5719 5719 5719 5720 5721 5722 5722
5691 5691 5692 5693 5693 5694 5694 5695 5696 5696 5697 5698 5698 5699 5699 5699 5699 5699 5700 5700 5700 5701 5703 5703 5704 5704 5705 5706 5706 5706 5707 5708 5709 5709 5709 5709 5709 5709 5709 5709 5709 5709 5709 5709 5709 5709 5709 5710 5710 5710 5711 5711 5711 5712 5712 5712 5712 5712 5713 5713 5713 5714 5714 5715 5715 5715 5714 5714 5715 5715 5715 5714 5714 5714 5713 5713 5713 5714 5714 5715 5715 5715 5715 5716 5717
5685 5686 5686 5687 5687 5688 5689 5690 5691 5691 5692 5693 5694 5694 5694 5695 5695 5695 5695 5694 5695 5696 5697 5698 5699 5699 5700 5700 5701 5702 5703 5704 5704 5705 5704 5705 5705 5705 5705 5705 5705 5705 5705 5705 5705 5705 5705 5706 5706 5706 5707 5707 5707 5707 5707 5708 5708 5708 5708 5708 5709 5709 5709 5710 5710 5710 5710 5710 5710 5710 5710 5710 5710 5710 5709 5709 5708 5708 5709 5709 5710 5710 5710 5711 5711
5680 5680 5680 5681 5681 5682 5683 5684 5685 5686 5687 5687 5688 5688 5689 5689 5689 5690 5689 5688 5690 5691 5691 5692 5693 5694 5695 5696 5696 5697 5698 5699 5700 5700 5700 5699 5700 5700 5701 5701 5701 5701 5701 5701 5701 5701 5701 5701 5701 5701 5702 5702 5702 5702 5702 5702 5703 5703 5703 5703 5703 5704 5704 5704 5705 5705 5705 5705 5705 5704 5705 5705 5705 5705 5704 5704 5704 5704 5703 5704 5704 5705 5705 5706 5706
5674 5674 5675 5675 5676 5676 5677 5678 5679 5680 5681 5682 5682 5683 5683 5683 5684 5684 5683 5683 5684 5685 5685 5687 5688 5689 5691 5691 5690 5691 5693 5694 5695 5695 5694 5694 5694 5695 5696 5696 5696 5696 5696 5696 5696 5696 5696 5696 5696 5696 5697 5696 5696 5697 5697 5697 5697 5698 5698 5698 5698 5698 5698 5699 5699 5699 5699 5699 5699 5699 5699 5699 5699 5699 5699 5699 5698 5698 5698 5698 5699 5699 5700 5700 5701
5668 5669 5669 5670 5670 5671 5672 5672 5673 5674 5675 5676 5676 5677 5677 5678 5678 5678 5678 5678 5679 5679 5680 5681 5682 5683 5684 5685 5684 5685 5687 5688 5688 5688 5689 5689 5689 5689 5690 5690 5690 5691 5691 5691 5691 5691 5691 5690 5691 5691 5692 5692 5691 5691 5691 5692 5691 5692 5692 5692 5692 5692 5693 5693 5693 5693 5693 5693 5694 5693 5693 5693 5693 5693 5693 5693 5692 5692 5693 5693 5693 5694 5694 5695 5696
5663 5663 5663 5664 5665 5665 5666 5667 5667 5668 5669 5669 5670 5670 5671 5671 5672 5673 5673 5673 5673 5674 5675 5676 5676 5676 5677 5678 5679 5679 5680 5682 5683 5683 5683 5683 5683 5684 5684 5684 5684 5684 5685 5685 5685 5685 5685 5685 5685 5685 5686 5686 5686 5686 5686 5686 5686 5685 5685 5686 5686 5686 5686 5686 5687 5687 5687 5687 5688 5688 5687 5687 5687 5687 5687 5687 5687 5686 5686 5687 5687 5688 5689 5689 5690
5656 5656 5657 5658 5658 5659 5660 5661 5662 5662 5663 5663 5663 5664 5664 5664 5665 5666 5666 5667 5667 5668 5669 5669 5670 5671 5670 5670 5672 5673 5673 5676 5677 5676 5677 5677 5677 5677 5677 5678 5678 5678 5678 5678 5678 5678 5677 5677 5677 5678 5678 5679 5679 5679 5679 5679 5679 5679 5679 5679 5679 5679 5679 5679 5679 5680 5680 5680 5681 5681 5681 5680 5681 5681 5680 5680 5681 5681 5680 5680 5681 5681 5682 5683 5683
5649 5649 5650 5651 5652 5653 5654 5655 5655 5656 5657 5657 5657 5658 5658 5658 5659 5659 5659 5660 5660 5661 5662 5662 5663 5664 5664 5664 5665 5665 5667 5670 5671 5669 5669 5670 5669 5669 5670 5671 5672 5671 5671 5671 5671 5671 5670 5670 5670 5670 5670 5671 5671 5671 5672 5671 5671 5671 5672 5672 5673 5672 5672 5672 5671 5671 5671 5672 5673 5674 5674 5673 5673 5673 5673 5673 5673 5674 5674 5674 5674 5674 5675 5675 5676
5641 5642 5643 5644 5644 5645 5647 5648 5648 5649 5650 5650 5651 5651 5651 5652 5652 5652 5653 5653 5653 5654 5654 5655 5656 5656 5657 5657 5657 5658 5661 5663 5663 5662 5662 5662 5662 5661 5662 5664 5664 5663 5664 5664 5663 5663 5663 5663 5663 5663 5663 5662 5663 5664 5664 5663 5662 5663 5664 5664 5665 5665 5665 5665 5664 5663 5663 5663 5664 5665 5666 5665 5665 5665 5665 5665 5665 5666 5666 5666 5667 5667 5667 5668 5669
5634 5635 5636 5637 5637 5638 5639 5640 5641 5642 5642 5643 5643 5644 5644 5644 5645 5645 5646 5646 5646 5647 5647 5647 5648 5649 5649 5649 5650 5652 5655 5656 5655 5654 5655 5655 5654 5654 5655 5657 5656 5656 5656 5657 5656 5656 5656 5656 5656 5655 5655 5654 5655 5656 5655 5654 5654 5654 5655 5656 5656 5657 5657 5656 5656 5655 5655 5655 5656 5657 5657 5657 5656 5656 5656 5656 5656 5657 5657 5658 5659 5658 5659 5660 5661
5627 5628 5629 5630 5631 5631 5632 5632 5633 5634 5635 5635 5635 5636 5636 5636 5637 5637 5638 5638 5639 5640 5640 5640 5640 5641 5640 5641 5643 5647 5648 5647 5646 5647 5647 5647 5647 5647 5648 5649 5649 5649 5649 5649 5648 5648 5648 5648 5648 5647 5647 5646 5647 5648 5647 5645 5645 5646 5646 5647 5648 5648 5648 5647 5646 5646 5647 5647 5648 5648 5648 5648 5647 5647 5647 5647 5647 5646 5647 5649 5649 5648 5649 5651 5652
5619 5620 5621 5623 5624 5624 5625 5625 5626 5627 5627 5628 5628 5628 5629 5629 5629 5630 5630 5630 5631 5631 5632 5633 5633 5632 5633 5635 5637 5639 5638 5638 5639 5640 5639 5640 5640 5640 5641 5642 5641 5641 5641 5641 5641 5641 5641 5640 5640 5639 5639 5638 5639 5640 5639 5637 5637 5638 5638 5639 5639 5640 5639 5638 5637 5638 5638 5639 5639 5639 5639 5638 5637 5637 5637 5637 5637 5636 5637 5639 5638 5637 5639 5641 5642
5612 5613 5614 5615 5616 5616 5617 5618 5618 5619 5619 5620 5620 5621 5621 5622 5622 5623 5623 5623 5624 5624 5624 5625 5624 5626 5628 5630 5630 5630 5630 5631 5632 5632 5632 5632 5632 5632 5633 5633 5633 5633 5633 5633 5633 5632 5632 5632 5632 5632 5632 5631 5631 5631 5630 5629 5629 5629 5629 5630 5631 5631 5630 5629 5629 5629 5629 5630 5630 5630 5630 5629 5629 5628 5628 5627 5627 5626 5626 5628 5627 5627 5629 5630 5630
5605 5606 5607 5608 5608 5609 5609 5610 5611 5611 5611 5612 5612 5613 5613 5614 5614 5615 5615 5616 5616 5616 5616 5617 5618 5620 5622 5622 5622 5623 5623 5623 5624 5624 5625 5625 5625 5625 5624 5624 5625 5626 5625 5625 5624 5624 5623 5623 5623 5624 5624 5623 5623 5622 5621 5621 5620 5620 5620 5620 5621 5621 5621 5621 5621 5621 5621 5621 5621 5621 5621 5620 5620 5620 5619 5618 5617 5616 5616 5616 5616 5617 5618 5619 5620
5599 5600 5600 5601 5601 5601 5602 5602 5603 5603 5604 5604 5605 5605 5606 5606 5606 5607 5607 5608 5609 5608 5609 5611 5612 5613 5614 5615 5615 5616 5616 5617 5617 5618 5618 5618 5617 5617 5616 5617 5617 5618 5617 5617 5616 5616 5615 5614 5615 5616 5616 5615 5614 5614 5614 5613 5613 5612 5611 5611 5610 5611 5611 5611 5612 5612 5612 5613 5612 5612 5612 5611 5610 5610 5610 5609 5608 5606 5606 5606 5606 5606 5607 5608 5609
5592 5592 5593 5593 5594 5594 5594 5595 5595 5596 5596 5597 5597 5598 5599 5598 5599 5599 5600 5600 5601 5601 5602 5603 5604 5605 5607 5608 5608 5609 5609 5610 5611 5611 5611 5610 5609 5609 5609 5610 5610 5610 5610 5609 5608 5608 5608 5606 5606 5608 5608 5606 5606 5606 5606 5605 5605 5604 5604 5602 5602 5601 5601 5602 5602 5602 5603 5602 5602 5602 5602 5601 5601 5600 5599 5599 5597 5596 5595 5595 5596 5596 5596 5597 5597
5584 5584 5585 5586 5586 5587 5588 5588 5588 5589 5589 5589 5590 5591 5591 5591 5592 5592 5592 5593 5594 5594 5595 5596 5596 5597 5599 5600 5601 5602 5602 5603 5603 5603 5603 5603 5603 5603 5603 5603 5603 5602 5602 5602 5601 5601 5600 5599 5598 5599 5599 5598 5598 5597 5597 5596 5596 5595 5595 5594 5593 5592 5592 5592 5592 5592 5592 5592 5591 5592 5591 5591 5590 5590 5589 5588 5587 5586 5585 5585 5585 5585 5586 5586 5587
5576 5576 5577 5578 5579 5580 5581 5581 5581 5582 5582 5582 5583 5584 5584 5584 5585 5585 5585 5586 5587 5587 5588 5589 5589 5590 5592 5593 5594 5594 5594 5595 5595 5595 5596 5596 5596 5596 5596 5596 5596 5595 5595 5594 5594 5593 5592 5591 5590 5590 5590 5589 5589 5588 5588 5587 5586 5586 5585 5584 5583 5583 5582 5582 5582 5581 5581 5581 5581 5581 5581 5580 5580 5579 5578 5577 5576 5576 5575 5574 5574 5574 5574 5575 5576
5569 5570 5571 5572 5573 5573 5573 5574 5574 5574 5575 5575 5576 5576 5577 5577 5578 5578 5578 5579 5580 5580 5581 5582 5582 5584 5585 5586 5586 5587 5587 5587 5588 5588 5589 5590 5589 5589 5589 5589 5589 5588 5588 5587 5587 5586 5585 5584 5583 5582 5581 5581 5580 5579 5578 5577 5576 5576 5575 5574 5573 5572 5572 5571 5571 5571 5571 5571 5571 5571 5571 5570 5570 5569 5568 5566 5566 5566 5565 5565 5564 5564 5564 5564 5565
5563 5564 5565 5565 5566 5566 5566 5567 5567 5567 5568 5568 5568 5569 5570 5570 5570 5571 5572 5572 5573 5574 5574 5575 5576 5577 5578 5579 5579 5579 5580 5581 5581 5582 5583 5583 5583 5583 5582 5582 5582 5581 5581 5580 5579 5579 5578 5577 5576 5575 5574 5573 5572 5571 5570 5568 5567 5566 5565 5564 5563 5562 5561 5561 5561 5560 5561 5561 5561 5561 5561 5560 5560 5560 5558 5557 5556 5556 5556 5555 5555 5554 5554 5554 5555
5557 5557 5558 5558 5559 5559 5559 5559 5560 5560 5560 5560 5561 5562 5563 5563 5563 5564 5565 5565 5566 5567 5568 5568 5570 5570 5571 5572 5572 5573 5574 5575 5576 5576 5576 5576 5576 5577 5576 5576 5575 5575 5574 5573 5572 5572 5571 5570 5569 5568 5567 5566 5565 5563 5562 5560 5559 5558 5556 5555 5554 5553 5552 5552 5551 5551 5551 5551 5551 5551 5551 5551 5550 5550 5549 5547 5547 5546 5546 5545 5545 5545 5544 5544 5545
5549 5550 5550 5551 5551 5551 5551 5552 5552 5553 5553 5553 5554 5555 5555 5556 5557 5557 5558 5558 5560 5561 5561 5561 5562 5563 5564 5565 5566 5567 5568 5568 5569 5569 5569 5569 5570 5570 5570 5570 5569 5569 5568 5567 5566 5566 5565 5564 5563 5562 5560 5559 5558 5556 5554 5553 5551 5550 5549 5547 5546 5545 5544 5543 5542 5542 5541 5541 5541 5541 5541 5540 5540 5539 5538 5538 5537 5537 5535 5535 5535 5535 5534 5534 5535
5541 5542 5542 5543 5543 5543 5544 5544 5544 5545 5545 5546 5547 5547 5547 5549 5549 5549 5550 5552 5553 5553 5554 5554 5555 5556 5557 5558 5559 5560 5561 5562 5563 5563 5564 5564 5564 5565 5565 5565 5564 5564 5564 5563 5562 5561 5560 5558 5557 5556 5554 5552 5551 5549 5547 5545 5544 5542 5541 5539 5538 5537 5535 5534 5533 5532 5532 5531 5531 5531 5531 5530 5529 5529 5528 5528 5527 5526 5525 5525 5525 5524 5524 5524 5525
5534 5535 5535 5536 5536 5536 5536 5536 5536 5537 5537 5538 5538 5539 5540 5541 5542 5542 5544 5546 5547 5547 5548 5549 5549 5550 5552 5553 5554 5555 5556 5557 5558 5559 5560 5560 5561 5561 5561 5561 5561 5560 5559 5558 5557 5556 5555 5553 5551 5549 5547 5545 5543 5541 5539 5537 5536 5534 5532 5531 5529 5527 5526 5524 5523 5522 5522 5522 5521 5521 5521 5520 5519 5518 5518 5518 5517 5516 5515 5515 5515 5514 5514 5515 5515
5528 5528 5528 5529 5529 5528 5528 5528 5528 5528 5528 5529 5530 5531 5533 5534 5536 5537 5539 5541 5542 5543 5544 5545 5545 5546 5547 5549 5550 5551 5553 5554 5555 5556 5557 5557 5557 5557 5557 5557 5557 5556 5555 5554 5553 5551 5549 5547 5545 5543 5540 5538 5536 5533 5531 5529 5527 5525 5523 5522 5520 5518 5516 5515 5514 5513 5513 5512 5512 5511 5511 5510 5510 5509 5508 5508 5508 5507 5506 5506 5506 5506 5506 5506 5507
5521 5521 5522 5522 5521 5521 5521 5520 5520 5521 5522 5523 5524 5526 5527 5529 5532 5533 5535 5537 5538 5539 5540 5541 5542 5543 5545 5546 5548 5549 5551 5552 5552 5553 5554 5554 5554 5554 5554 5554 5553 5552 5551 5550 5548 5546 5544 5542 5539 5537 5534 5532 5529 5527 5524 5522 5519 5517 5515 5513 5511 5509 5508 5506 5505 5504 5504 5503 5503 5502 5502 5501 5501 5500 5500 5500 5499 5499 5498 5498 5498 5498 5498 5499 5499
5515 5515 5515 5515 5515 5515 5515 5515 5515 5516 5517 5519 5521 5522 5524 5526 5528 5531 5533 5534 5535 5536 5537 5539 5540 5541 5543 5544 5546 5547 5548 5549 5550 5551 5551 5551 5552 5552 5551 5550 5549 5548 5546 5545 5543 5541 5539 5537 5535 5532 5530 5527 5524 5521 5518 5515 5512 5509 5507 5504 5503 5501 5500 5498 5497 5496 5496 5495 5495 5494 5494 5493 5493 5493 5493 5492 5492 5492 5492 5491 5491 5491 5491 5492 5492
5509 5510 5510 5511 5511 5511 5511 5511 5512 5513 5514 5516 5518 5520 5522 5524 5526 5528 5530 5532 5533 5534 5535 5537 5538 5539 5541 5542 5544 5545 5546 5547 5548 5548 5549 5549 5549 5548 5547 5547 5546 5545 5543 5542 5540 5538 5536 5533 5530 5527 5524 5521 5517 5513 5510 5507 5503 5501 5498 5496 5495 5493 5492 5491 5490 5489 5489 5489 5488 5488 5487 5487 5487 5487 5486 5486 5485 5485 5485 5485 5484 5484 5485 5485 5486
5506 5507 5507 5508 5509 5509 5509 5509 5510 5511 5513 5515 5517 5518 5521 5523 5525 5526 5528 5529 5531 5532 5534 5535 5536 5538 5539 5541 5542 5543 5544 5545 5546 5546 5546 5546 5545 5545 5545 5544 5544 5542 5541 5539 5537 5534 5532 5528 5525 5521 5518 5514 5510 5506 5502 5498 5495 5493 5490 5489 5488 5487 5486 5485 5485 5484 5484 5484 5483 5483 5482 5482 5482 5481 5481 5480 5480 5479 5479 5479 5478 5479 5479 5479 5480
5504 5505 5506 5507 5508 5508 5508 5508 5510 5511 5513 5515 5516 5518 5520 5521 5523 5524 5526 5528 5529 5531 5532 5533 5535 5536 5538 5539 5540 5541 5542 5543 5543 5543 5543 5543 5543 5543 5543 5543 5541 5540 5538 5535 5533 5530 5527 5523 5520 5516 5512 5507 5503 5498 5495 5491 5488 5486 5484 5483 5482 5482 5481 5481 5481 5481 5480 5480 5479 5479 5478 5478 5477 5477 5476 5476 5475 5475 5474 5474 5474 5473 5474 5474 5474
5502 5504 5505 5506 5507 5507 5508 5509 5510 5512 5513 5515 5516 5517 5518 5520 5521 5523 5524 5526 5528 5529 5530 5532 5533 5534 5536 5537 5538 5539 5540 5541 5541 5541 5541 5542 5542 5542 5542 5541 5539 5537 5534 5532 5529 5526 5523 5519 5515 5511 5506 5501 5496 5492 5488 5485 5482 5480 5479 5479 5479 5478 5478 5478 5478 5477 5477 5477 5476 5476 5475 5474 5473 5473 5472 5472 5471 5470 5469 5469 5468 5468 5468 5468 5468
5502 5503 5504 5505 5506 5507 5508 5509 5511 5512 5513 5514 5515 5516 5517 5519 5520 5522 5523 5525 5526 5527 5529 5530 5531 5533 5534 5536 5537 5537 5538 5538 5539 5540 5541 5541 5541 5541 5540 5538 5536 5533 5531 5528 5525 5522 5518 5514 5510 5505 5500 5495 5490 5486 5483 5480 5478 5477 5476 5476 5476 5476 5475 5475 5475 5475 5474 5474 5473 5473 5472 5471 5470 5469 5468 5467 5466 5465 5464 5464 5463 5462 5462 5462 5462
5501 5503 5504 5505 5506 5507 5508 5509 5510 5511 5512 5513 5514 5515 5516 5518 5519 5521 5522 5523 5525 5526 5528 5529 5530 5532 5533 5534 5535 5536 5537 5538 5539 5539 5540 5540 5539 5539 5537 5535 5533 5530 5528 5525 5521 5518 5514 5510 5506 5501 5496 5490 5486 5482 5479 5476 5475 5475 5474 5474 5473 5473 5473 5473 5473 5472 5472 5472 5471 5470 5469 5468 5466 5465 5463 5462 5461 5460 5459 5458 5457 5456 5456 5456 5456
5501 5502 5503 5504 5505 5506 5507 5508 5509 5510 5511 5512 5513 5514 5515 5517 5518 5519 5521 5522 5524 5525 5527 5528 5530 5531 5532 5533 5534 5535 5536 5537 5538 5538 5538 5538 5537 5536 5534 5532 5530 5527 5525 5522 5518 5515 5511 5507 5502 5497 5491 5486 5482 5478 5476 5474 5473 5473 5472 5472 5471 5471 5471 5471 5471 5471 5470 5470 5469 5468 5466 5465 5463 5461 5460 5458 5457 5455 5454 5453 5452 5452 5451 5451 5451
5500 5501 5502 5503 5504 5506 5507 5508 5508 5509 5510 5511 5512 5513 5514 5516 5517 5519 5520 5522 5523 5525 5526 5528 5529 5530 5531 5532 5533 5534 5535 5536 5536 5536 5536 5536 5535 5533 5531 5529 5527 5525 5522 5519 5516 5512 5507 5503 5498 5493 5488 5483 5479 5476 5474 5472 5471 5471 5470 5470 5469 5469 5470 5470 5470 5469 5469 5468 5467 5465 5464 5462 5460 5459 5457 5455 5454 5452 5451 5450 5449 5448 5448 5447 5447
5500 5501 5502 5503 5504 5505 5506 5507 5508 5509 5509 5510 5511 5512 5514 5515 5517 5518 5520 5522 5523 5524 5526 5527 5528 5529 5530 5531 5532 5533 5534 5534 5534 5534 5534 5533 5532 5531 5529 5527 5525 5523 5520 5517 5513 5509 5505 5500 5496 5491 5486 5481 5477 5474 5472 5471 5470 5469 5468 5468 5468 5468 5469 5469 5468 5468 5467 5466 5464 5463 5462 5460 5459 5457 5456 5454 5452 5450 5449 5447 5446 5446 5445 5445 5445
5500 5501 5502 5503 5504 5505 5506 5506 5507 5508 5509 5510 5511 5512 5514 5515 5517 5518 5520 5521 5523 5524 5525 5526 5527 5528 5529 5530 5531 5532 5532 5532 5532 5532 5532 5531 5530 5528 5527 5525 5523 5521 5518 5514 5510 5506 5502 5498 5493 5489 5484 5479 5475 5473 5471 5470 5468 5467 5467 5467 5467 5467 5468 5467 5467 5467 5466 5464 5463 5461 5461 5460 5458 5456 5455 5453 5451 5449 5447 5446 5445 5444 5444 5444 5444
5500 5501 5502 5502 5503 5504 5505 5506 5507 5508 5509 5510 5512 5513 5514 5515 5517 5518 5520 5521 5522 5523 5524 5525 5526 5527 5528 5529 5529 5529 5530 5530 5530 5530 5529 5528 5527 5526 5525 5523 5521 5519 5515 5512 5508 5504 5500 5496 5492 5487 5483 5478 5474 5472 5470 5469 5468 5467 5466 5466 5467 5467 5467 5467 5466 5466 5464 5463 5461 5461 5460 5459 5458 5456 5454 5453 5451 5449 5447 5446 5445 5445 5444 5444 5444
5500 5501 5501 5502 5503 5504 5505 5506 5507 5508 5510 5511 5512 5513 5514 5515 5517 5518 5519 5521 5522 5523 5523 5524 5525 5526 5527 5527 5527 5527 5528 5528 5528 5527 5527 5526 5525 5524 5523 5521 5519 5516 5513 5510 5507 5503 5499 5495 5491 5486 5482 5477 5473 5471 5469 5468 5467 5466 5466 5466 5466 5466 5466 5466 5465 5464 5463 5462 5461 5461 5460 5459 5458 5456 5455 5453 5451 5450 5448 5446 5446 5446 5445 5445 5446
5500 5501 5501 5502 5503 5504 5505 5506 5508 5509 5510 5511 5512 5513 5514 5515 5517 5518 5519 5520 5521 5522 5522 5523 5524 5525 5525 5526 5525 5525 5526 5526 5525 5525 5525 5524 5523 5523 5521 5519 5517 5514 5512 5508 5505 5501 5498 5494 5490 5486 5481 5477 5473 5470 5469 5468 5467 5466 5466 5466 5466 5466 5466 5465 5464 5463 5462 5462 5462 5462 5461 5459 5458 5457 5456 5454 5452 5451 5450 5448 5447 5447 5447 5447 5447
5500 5500 5501 5502 5503 5504 5505 5506 5508 5509 5510 5511 5512 5513 5514 5515 5516 5517 5518 5519 5520 5521 5521 5522 5523 5523 5524 5524 5524 5524 5524 5524 5523 5523 5523 5522 5521 5520 5519 5517 5515 5512 5510 5507 5504 5500 5496 5493 5489 5485 5481 5477 5473 5470 5468 5467 5467 5466 5466 5466 5466 5465 5465 5465 5464 5463 5462 5462 5462 5462 5461 5460 5459 5458 5457 5455 5454 5453 5452 5451 5450 5449 5449 5448 5449
5500 5500 5501 5502 5504 5505 5506 5507 5508 5509 5510 5511 5512 5513 5514 5515 5516 5517 5517 5518 5519 5520 5520 5521 5521 5522 5522 5522 5522 5522 5522 5522 5522 5521 5521 5520 5519 5518 5517 5515 5513 5511 5508 5505 5502 5499 5495 5492 5488 5485 5481 5477 5473 5470 5468 5467 5466 5466 5465 5465 5465 5465 5465 5464 5463 5463 5463 5463 5463 5463 5462 5461 5460 5459 5458 5457 5456 5455 5454 5452 5452 5451 5451 5451 5451
5500 5501 5502 5503 5504 5505 5506 5507 5508 5509 5510 5511 5512 5513 5513 5514 5515 5516 5516 5517 5518 5518 5519 5519 5519 5520 5520 5521 5521 5521 5521 5520 5520 5520 5519 5518 5517 5516 5515 5513 5511 5509 5507 5504 5501 5498 5495 5491 5488 5485 5482 5478 5474 5470 5468 5467 5466 5465 5465 5465 5465 5465 5464 5463 5463 5463 5463 5464 5464 5463 5463 5462 5461 5460 5459 5458 5457 5457 5456 5455 5454 5453 5453 5453 5453
5500 5501 5502 5503 5504 5505 5506 5507 5507 5508 5509 5510 5511 5512 5512 5513 5514 5515 5515 5516 5517 5517 5517 5518 5518 5518 5519 5519 5519 5519 5519 5519 5518 5518 5517 5517 5516 5514 5513 5511 5509 5508 5505 5503 5501 5498 5495 5491 5488 5485 5482 5479 5475 5471 5469 5467 5466 5466 5465 5465 5465 5465 5464 5463 5463 5463 5464 5464 5464 5464 5464 5463 5462 5461 5460 5460 5459 5458 5458 5457 5456 5456 5456 5456 5456
5500 5501 5502 5503 5503 5504 5505 5506 5506 5507 5508 5508 5509 5510 5511 5512 5512 5513 5514 5514 5515 5515 5516 5516 5516 5517 5517 5517 5517 5517 5517 5517 5516 5516 5515 5515 5514 5512 5511 5509 5508 5506 5504 5502 5500 5497 5494 5491 5488 5485 5483 5480 5477 5473 5469 5467 5467 5466 5466 5465 5465 5465 5464 5463 5463 5464 5464 5465 5465 5465 5464 5464 5463 5462 5462 5461 5461 5460 5459 5459 5459 5459 5459 5459 5459